2024-236A (62263 NORAD) Tracking and Keplerian Element Data

This shows tracking and keplerian element data for the satellite.

Feedback or suggestion? Click here.




ElementValue
Catalog62263
Name2024-236A
Epoch Orbit942
Epoch Day34.67093226
Epoch Year2025
RAAN124.0446
Inclination58.531
Eccentricity0.0036892
Argument of Perigee265.3241
Mean Anonmoly94.3641
Mean Motion15.94910263
Decay Rate0.0032504
L11 62263U 24236A 25034.67093226 .00325040 51396-4 77790-3 0 9990
L22 62263 58.5310 124.0446 0036892 265.3241 94.3641 15.94910263 9427



Live tracking and technical data element details for 2024-236A (NORAD 62263). 2024-236A can be tracked NOW for your location showing map with azimuth and elevation plus other details from your city location.







IsCatalogInMostPopularTable: catalog: 62263, numindb: 12
Update: records affected: 1



GetName: 62263 2024-236A

Hit Count: updated at: Sun, 18 May 2025 23:15:53 GMT